This demonstration page uses our WeatherBlox Daily Observations layout. Learn more.

Left ArrowRight Arrow

Hourly Observations for August 2, 2021

Temp ( °F °C ) Dew Point ( °F °C ) Humidity (%) Winds ( mph kmh ) Pressure ( in mb ) Visibility ( mi km ) Precip ( " mm )
12:53 am 00:53 Clear 60 15.6 57 13.9 90 90 N N/A 30.06 1018 8 13 N/A
1:53 am 01:53 Clear 57 13.9 57 13.9 100 100 N N/A 30.07 1018 7 11 N/A
2:53 am 02:53 Clear 57 13.9 57 13.9 100 100 N N/A 30.08 1019 8 13 N/A
3:53 am 03:53 Clear 57 13.9 56 13.3 96 96 N 5 7 30.09 1019 9 14 N/A
4:53 am 04:53 Clear 57 13.9 55 12.8 93 93 N 5 7 30.10 1019 10 16 N/A
5:53 am 05:53 Clear 56 13.3 55 12.8 97 97 N N/A 30.10 1019 8 13 N/A
6:53 am 06:53 Sunny with Mist and Fog 55 12.8 55 12.8 100 100 SW 3 6 30.12 1020 5 8 N/A
7:53 am 07:53 Sunny 60 15.6 57 13.9 90 90 N N/A 30.13 1020 8 13 N/A
8:53 am 08:53 Sunny 65 18.3 59 15 81 81 ENE 3 6 30.14 1021 9 14 N/A
9:53 am 09:53 Sunny 69 20.6 60 15.6 73 73 E 7 11 30.15 1021 10 16 N/A
10:53 am 10:53 Sunny 71 21.7 60 15.6 68 68 ENE 5 7 30.15 1021 10 16 N/A
11:53 am 11:53 Partly Cloudy 74 23.3 60 15.6 62 62 NNE 6 9 30.14 1021 10 16 N/A
12:53 pm 12:53 Mostly Sunny 76 24.4 60 15.6 58 58 NNE 5 7 30.14 1021 10 16 N/A
1:53 pm 13:53 Mostly Sunny 78 25.6 59 15 52 52 VRB 7 11 30.12 1020 10 16 N/A
2:53 pm 14:53 Mostly Cloudy 76 24.4 58 14.4 54 54 NNE 7 11 30.11 1020 10 16 N/A
3:53 pm 15:53 Mostly Sunny 78 25.6 57 13.9 48 48 E 6 9 30.09 1019 10 16 N/A
4:53 pm 16:53 Partly Cloudy 76 24.4 57 13.9 52 52 ENE 3 6 30.09 1019 10 16 N/A
5:53 pm 17:53 Sunny 79 26.1 57 13.9 47 47 VRB 7 11 30.07 1018 10 16 N/A
6:53 pm 18:53 Sunny 79 26.1 56 13.3 45 45 NE 7 11 30.07 1018 10 16 N/A
7:53 pm 19:53 Sunny 75 23.9 56 13.3 52 52 ENE 8 13 30.07 1018 10 16 N/A
8:53 pm 20:53 Clear 69 20.6 57 13.9 66 66 ENE 5 7 30.08 1019 10 16 N/A
9:53 pm 21:53 Clear 63 17.2 60 15.6 90 90 N N/A 30.09 1019 10 16 N/A
10:53 pm 22:53 Clear 61 16.1 60 15.6 97 97 N N/A 30.10 1019 10 16 N/A
11:53 pm 23:53 Clear 60 15.6 59 15 96 96 N N/A 30.10 1019 10 16 N/A

Powered by AerisWeather